Home   Weather   Tsingtao   Past weeks

Flag for China Past Weather in Tsingtao, Shandong, China — Yesterday and Last 2 Weeks

Now
27 °F

Clear.


Feels Like: 27 °F
Forecast: 37 / 48 °F
Wind: 1 mph from Northeast

Location: Qingdao Airport

Current Time: Feb 26, 2017 at 7:07:23 am

Latest Report: Feb 26, 2017 at 6:00 am


Visibility: 10 mi

Pressure: 30.30 "Hg

Humidity: 80%

Dew Point: 21 °F

Location of TsingtaoLocation

Past Weather in Tsingtao — Graph

°F

Tsingtao Temperature Yesterday

Maximum temperature yesterday: 55 °F (at 3:00 pm)
Minimum temperature yesterday: 27 °F (at 5:00 am)
Average temperature yesterday: 41 °F

High & Low Weather Summary for the Past Weeks

 TemperatureHumidityPressure
High59 °F (Feb 13, 3:00 pm)100% (Feb 22, 5:00 am)30.63 "Hg (Feb 22, 5:00 am)
Low19 °F (Feb 11, 6:00 am)13% (Feb 11, 3:00 pm)29.65 "Hg (Feb 19, 3:00 pm)
Average38 °F57%30.29 "Hg
* Reported Feb 11 5:00 am — Feb 26 5:00 am, Tsingtao, Weather by CustomWeather, © 2017

Note: Actual official high and low records may vary slightly from our data, if they occured in-between our weather recording intervals... More about our weather records

Advertising

Tsingtao Weather History for the Previous 24 Hours

Scroll right to see more
 ConditionsComfort  
Time TempWeatherWind HumidityBarometerVisibility
5:00 am
Sun, Feb 26
28 °FClear.3 mph74%30.27 "Hg10 mi
4:00 am28 °FClear.No wind69%30.27 "Hg10 mi
3:00 am30 °FClear.No wind59%30.27 "Hg10 mi
2:00 am34 °FClear.1 mph48%30.27 "Hg10 mi
1:00 am39 °FPassing clouds.8 mph36%30.27 "HgN/A
12:00 am37 °FClear.6 mph38%30.27 "Hg10 mi
11:00 pm
Sat, Feb 25
39 °FClear.6 mph36%30.24 "Hg10 mi
10:00 pm41 °FPassing clouds.6 mph31%30.24 "HgN/A
9:00 pm45 °FPassing clouds.3 mph31%30.24 "HgN/A
8:00 pm41 °FClear.1 mph36%30.21 "Hg10 mi
7:00 pm41 °FClear.6 mph33%30.18 "Hg10 mi
6:00 pm45 °FClear.10 mph29%30.15 "Hg10 mi
5:00 pm50 °FSunny.10 mph28%30.15 "Hg10 mi
4:00 pm54 °FPassing clouds.10 mph22%30.12 "HgN/A
3:00 pm55 °FPassing clouds.10 mph21%30.12 "HgN/A
2:00 pm54 °FPassing clouds.6 mph26%30.15 "HgN/A
1:00 pm54 °FPassing clouds.8 mph26%30.15 "HgN/A
12:00 pm52 °FPassing clouds.6 mph30%30.21 "HgN/A
11:00 am50 °FClear.3 mph35%30.24 "Hg4 mi
10:00 am45 °FHaze.3 mph49%30.24 "Hg3 mi
9:00 am43 °FHaze.3 mph61%30.27 "Hg2 mi
8:00 am36 °FFog.3 mph87%30.27 "Hg2 mi
7:00 am28 °FIce fog.1 mph93%30.27 "Hg2 mi
Weather by CustomWeather, © 2017

See weather overviewHow to use our weather pages